Time,TemperatureF,DewpointF,PressureIn,WindDirection,WindDirectionDegrees,WindSpeedMPH,WindSpeedGustMPH,Humidity,HourlyPrecipIn,Conditions,Clouds,dailyrainin,SoftwareType,DateUTC
2013-04-14 00:02:00,43.0,39.7,29.85,SSE,157,0.0,0.0,88,0.00,,,0.00,WUHU21623XXSP,2013-04-14 07:02:00,
2013-04-14 00:07:00,43.0,39.7,29.85,SSE,157,0.0,0.0,88,0.00,,,0.00,WUHU21623XXSP,2013-04-14 07:07:00,
2013-04-14 00:12:00,43.0,40.0,29.85,SSE,157,0.0,0.0,89,0.00,,,0.00,WUHU21623XXSP,2013-04-14 07:12:00,
2013-04-14 00:18:00,43.0,40.0,29.85,SSE,157,0.0,0.0,89,0.00,,,0.00,WUHU21623XXSP,2013-04-14 07:18:00,
2013-04-14 00:23:00,43.0,40.0,29.85,SSE,157,0.0,0.0,89,0.00,,,0.00,WUHU21623XXSP,2013-04-14 07:23:00,
2013-04-14 00:28:00,43.0,40.0,29.85,SSE,157,0.0,0.0,89,0.00,,,0.00,WUHU21623XXSP,2013-04-14 07:28:00,
2013-04-14 00:33:00,42.8,39.8,29.85,SSE,157,0.0,0.0,89,0.00,,,0.00,WUHU21623XXSP,2013-04-14 07:33:00,
2013-04-14 00:39:00,42.6,39.6,29.85,SSE,157,0.0,0.0,89,0.00,,,0.00,WUHU21623XXSP,2013-04-14 07:39:00,
2013-04-14 00:44:00,42.6,39.6,29.85,SSE,157,0.0,0.0,89,0.00,,,0.00,WUHU21623XXSP,2013-04-14 07:44:00,
2013-04-14 00:49:00,42.6,39.6,29.85,SSE,157,0.0,0.0,89,0.00,,,0.00,WUHU21623XXSP,2013-04-14 07:49:00,
2013-04-14 00:59:00,42.6,39.6,29.86,SSE,157,0.0,0.0,89,0.00,,,0.00,WUHU21623XXSP,2013-04-14 07:59:00,
2013-04-14 01:05:00,42.6,39.6,29.86,SSE,157,0.0,0.0,89,0.00,,,0.00,WUHU21623XXSP,2013-04-14 08:05:00,
2013-04-14 01:10:00,42.8,39.8,29.85,SSE,157,0.0,0.0,89,0.00,,,0.00,WUHU21623XXSP,2013-04-14 08:10:00,
2013-04-14 01:15:00,42.6,39.6,29.86,SSE,157,0.0,0.0,89,0.00,,,0.00,WUHU21623XXSP,2013-04-14 08:15:00,
2013-04-14 01:21:00,42.6,39.6,29.86,SSE,157,0.0,0.0,89,0.00,,,0.00,WUHU21623XXSP,2013-04-14 08:21:00,
2013-04-14 01:26:00,42.4,39.4,29.86,SSE,157,0.0,0.0,89,0.00,,,0.00,WUHU21623XXSP,2013-04-14 08:26:00,
2013-04-14 01:31:00,42.4,39.4,29.85,SSE,157,0.0,0.0,89,0.00,,,0.00,WUHU21623XXSP,2013-04-14 08:31:00,
2013-04-14 01:36:00,42.4,39.4,29.86,SSE,157,0.0,0.0,89,0.00,,,0.00,WUHU21623XXSP,2013-04-14 08:36:00,
2013-04-14 01:42:00,42.4,39.4,29.86,SSE,157,0.0,0.0,89,0.00,,,0.00,WUHU21623XXSP,2013-04-14 08:42:00,
2013-04-14 01:47:00,42.4,39.4,29.85,SSE,157,0.0,0.0,89,0.00,,,0.00,WUHU21623XXSP,2013-04-14 08:47:00,
2013-04-14 01:52:00,42.4,39.4,29.85,SSE,157,0.0,0.0,89,0.00,,,0.00,WUHU21623XXSP,2013-04-14 08:52:00,
2013-04-14 02:00:00,42.4,39.4,29.85,SSE,157,0.0,0.0,89,0.00,,,0.00,WUHU21623XXSP,2013-04-14 09:00:00,
2013-04-14 02:05:00,42.4,39.4,29.85,SSE,157,0.0,0.0,89,0.00,,,0.00,WUHU21623XXSP,2013-04-14 09:05:00,
2013-04-14 02:10:00,42.4,39.4,29.85,SSE,157,0.0,0.0,89,0.00,,,0.00,WUHU21623XXSP,2013-04-14 09:10:00,
2013-04-14 02:15:00,42.4,39.4,29.85,SSE,157,0.0,0.0,89,0.00,,,0.00,WUHU21623XXSP,2013-04-14 09:15:00,
2013-04-14 02:21:00,42.4,39.4,29.85,SSE,157,0.0,0.0,89,0.00,,,0.00,WUHU21623XXSP,2013-04-14 09:21:00,
2013-04-14 02:26:00,42.4,39.4,29.85,SE,135,0.0,0.0,89,0.00,,,0.00,WUHU21623XXSP,2013-04-14 09:26:00,
2013-04-14 02:31:00,42.3,39.3,29.85,SSE,157,0.0,0.0,89,0.00,,,0.00,WUHU21623XXSP,2013-04-14 09:31:00,
2013-04-14 02:37:00,42.1,39.1,29.85,SSE,157,0.0,0.0,89,0.00,,,0.00,WUHU21623XXSP,2013-04-14 09:37:00,
2013-04-14 02:42:00,42.3,39.3,29.84,SE,135,0.0,0.0,89,0.00,,,0.00,WUHU21623XXSP,2013-04-14 09:42:00,
2013-04-14 02:47:00,42.1,39.1,29.84,SE,135,0.0,0.0,89,0.00,,,0.00,WUHU21623XXSP,2013-04-14 09:47:00,
2013-04-14 02:53:00,42.1,39.1,29.85,SSE,157,0.0,0.0,89,0.00,,,0.00,WUHU21623XXSP,2013-04-14 09:53:00,
2013-04-14 02:59:00,42.1,39.1,29.84,SSE,157,0.0,0.0,89,0.00,,,0.00,WUHU21623XXSP,2013-04-14 09:59:00,
2013-04-14 03:05:00,42.1,39.1,29.84,SE,135,0.0,0.0,89,0.00,,,0.00,WUHU21623XXSP,2013-04-14 10:05:00,
2013-04-14 03:10:00,42.1,39.1,29.84,SE,135,0.0,0.0,89,0.00,,,0.00,WUHU21623XXSP,2013-04-14 10:10:00,
2013-04-14 03:15:00,41.9,38.9,29.85,SE,135,0.0,0.0,89,0.00,,,0.00,WUHU21623XXSP,2013-04-14 10:15:00,
2013-04-14 03:20:00,41.9,38.9,29.85,SE,135,0.0,0.0,89,0.00,,,0.00,WUHU21623XXSP,2013-04-14 10:20:00,
2013-04-14 03:26:00,41.9,38.9,29.85,SE,135,0.0,0.0,89,0.00,,,0.00,WUHU21623XXSP,2013-04-14 10:26:00,
2013-04-14 03:31:00,41.9,38.9,29.84,SE,135,0.0,0.0,89,0.00,,,0.00,WUHU21623XXSP,2013-04-14 10:31:00,
2013-04-14 03:37:00,41.9,38.9,29.84,SE,135,0.0,0.0,89,0.00,,,0.00,WUHU21623XXSP,2013-04-14 10:37:00,
2013-04-14 03:42:00,41.9,38.9,29.84,SE,135,0.0,0.0,89,0.00,,,0.00,WUHU21623XXSP,2013-04-14 10:42:00,
2013-04-14 03:47:00,41.9,38.9,29.85,SE,135,0.0,0.0,89,0.00,,,0.00,WUHU21623XXSP,2013-04-14 10:47:00,
2013-04-14 03:53:00,41.9,38.9,29.85,SE,135,0.0,0.0,89,0.00,,,0.00,WUHU21623XXSP,2013-04-14 10:53:00,
2013-04-14 03:59:00,41.7,38.7,29.85,SSE,157,0.0,0.0,89,0.00,,,0.00,WUHU21623XXSP,2013-04-14 10:59:00,
2013-04-14 04:05:00,41.7,38.7,29.85,SSE,157,0.0,0.0,89,0.00,,,0.00,WUHU21623XXSP,2013-04-14 11:05:00,
2013-04-14 04:10:00,41.7,38.7,29.84,SSE,157,0.0,0.0,89,0.00,,,0.00,WUHU21623XXSP,2013-04-14 11:10:00,
2013-04-14 04:15:00,41.7,38.7,29.85,SSE,157,0.0,0.0,89,0.00,,,0.00,WUHU21623XXSP,2013-04-14 11:15:00,
2013-04-14 04:20:00,41.7,38.7,29.85,SSE,157,0.0,0.0,89,0.00,,,0.00,WUHU21623XXSP,2013-04-14 11:20:00,
2013-04-14 04:26:00,41.7,38.7,29.85,SSE,157,0.0,0.0,89,0.00,,,0.00,WUHU21623XXSP,2013-04-14 11:26:00,
2013-04-14 04:31:00,41.7,38.7,29.84,SSE,157,0.0,0.0,89,0.00,,,0.00,WUHU21623XXSP,2013-04-14 11:31:00,
2013-04-14 04:36:00,41.5,38.5,29.85,SSE,157,0.0,0.0,89,0.00,,,0.00,WUHU21623XXSP,2013-04-14 11:36:00,
2013-04-14 04:42:00,41.5,38.5,29.85,SE,135,0.0,0.0,89,0.00,,,0.00,WUHU21623XXSP,2013-04-14 11:42:00,
2013-04-14 04:47:00,41.5,38.5,29.84,SE,135,0.0,0.0,89,0.00,,,0.00,WUHU21623XXSP,2013-04-14 11:47:00,
2013-04-14 04:52:00,41.4,38.4,29.84,ENE,67,0.0,0.0,89,0.00,,,0.00,WUHU21623XXSP,2013-04-14 11:52:00,
2013-04-14 05:00:00,41.2,38.2,29.84,East,90,0.0,0.0,89,0.00,,,0.00,WUHU21623XXSP,2013-04-14 12:00:00,
2013-04-14 05:05:00,41.2,38.2,29.84,East,90,0.0,0.0,89,0.00,,,0.00,WUHU21623XXSP,2013-04-14 12:05:00,
2013-04-14 05:10:00,41.0,38.0,29.84,East,90,0.0,0.0,89,0.00,,,0.00,WUHU21623XXSP,2013-04-14 12:10:00,
2013-04-14 05:15:00,40.8,37.8,29.84,East,90,0.0,0.0,89,0.00,,,0.00,WUHU21623XXSP,2013-04-14 12:15:00,
2013-04-14 05:21:00,40.8,37.8,29.84,East,90,0.0,0.0,89,0.00,,,0.00,WUHU21623XXSP,2013-04-14 12:21:00,
2013-04-14 05:26:00,40.8,37.8,29.84,East,90,0.0,0.0,89,0.00,,,0.00,WUHU21623XXSP,2013-04-14 12:26:00,
2013-04-14 05:32:00,40.8,37.8,29.84,East,90,0.0,0.0,89,0.00,,,0.00,WUHU21623XXSP,2013-04-14 12:32:00,
2013-04-14 05:37:00,40.8,37.8,29.84,East,90,0.0,0.0,89,0.00,,,0.00,WUHU21623XXSP,2013-04-14 12:37:00,
2013-04-14 05:42:00,40.8,37.8,29.84,East,90,0.0,0.0,89,0.00,,,0.00,WUHU21623XXSP,2013-04-14 12:42:00,
2013-04-14 05:48:00,40.8,37.8,29.84,SSE,157,0.0,0.0,89,0.00,,,0.00,WUHU21623XXSP,2013-04-14 12:48:00,
2013-04-14 05:53:00,40.8,37.8,29.84,SE,135,0.0,2.0,89,0.00,,,0.00,WUHU21623XXSP,2013-04-14 12:53:00,
2013-04-14 05:59:00,40.8,37.8,29.84,SE,135,0.0,2.7,89,0.00,,,0.00,WUHU21623XXSP,2013-04-14 12:59:00,
2013-04-14 06:05:00,40.8,37.8,29.85,SE,135,0.0,1.8,89,0.00,,,0.00,WUHU21623XXSP,2013-04-14 13:05:00,
2013-04-14 06:10:00,40.8,37.8,29.85,SE,135,0.0,0.0,89,0.00,,,0.00,WUHU21623XXSP,2013-04-14 13:10:00,
2013-04-14 06:15:00,40.6,37.6,29.85,SE,135,0.0,0.0,89,0.00,,,0.00,WUHU21623XXSP,2013-04-14 13:15:00,
2013-04-14 06:21:00,40.6,37.6,29.86,SE,135,0.0,0.0,89,0.00,,,0.00,WUHU21623XXSP,2013-04-14 13:21:00,
2013-04-14 06:26:00,40.6,37.6,29.86,SE,135,0.0,0.0,89,0.00,,,0.00,WUHU21623XXSP,2013-04-14 13:26:00,
2013-04-14 06:31:00,40.6,37.6,29.86,SE,135,0.0,0.0,89,0.00,,,0.00,WUHU21623XXSP,2013-04-14 13:31:00,
2013-04-14 06:37:00,40.6,37.6,29.86,SSE,157,0.0,0.0,89,0.00,,,0.00,WUHU21623XXSP,2013-04-14 13:37:00,
2013-04-14 06:42:00,40.6,37.9,29.86,SSE,157,0.0,0.0,90,0.00,,,0.00,WUHU21623XXSP,2013-04-14 13:42:00,
2013-04-14 06:47:00,40.6,37.6,29.86,SSE,157,0.0,0.0,89,0.00,,,0.00,WUHU21623XXSP,2013-04-14 13:47:00,
2013-04-14 06:53:00,40.8,37.8,29.86,SSE,157,0.0,0.0,89,0.00,,,0.00,WUHU21623XXSP,2013-04-14 13:53:00,
2013-04-14 06:59:00,40.8,37.8,29.86,SE,135,0.0,0.0,89,0.00,,,0.00,WUHU21623XXSP,2013-04-14 13:59:00,
2013-04-14 07:05:00,40.8,37.8,29.86,SE,135,0.0,0.0,89,0.00,,,0.00,WUHU21623XXSP,2013-04-14 14:05:00,
2013-04-14 07:10:00,40.8,37.8,29.86,SE,135,0.0,1.8,89,0.00,,,0.00,WUHU21623XXSP,2013-04-14 14:10:00,
2013-04-14 07:15:00,40.8,37.8,29.86,ESE,112,0.0,1.8,89,0.00,,,0.00,WUHU21623XXSP,2013-04-14 14:15:00,
2013-04-14 07:20:00,41.0,38.0,29.86,ESE,112,0.0,0.0,89,0.00,,,0.00,WUHU21623XXSP,2013-04-14 14:20:00,
2013-04-14 07:26:00,40.8,37.8,29.86,ESE,112,0.0,0.0,89,0.00,,,0.00,WUHU21623XXSP,2013-04-14 14:26:00,
2013-04-14 07:32:00,41.0,38.0,29.86,ESE,112,0.0,2.7,89,0.00,,,0.00,WUHU21623XXSP,2013-04-14 14:32:00,
2013-04-14 07:37:00,40.8,37.8,29.86,SE,135,0.0,0.0,89,0.00,,,0.00,WUHU21623XXSP,2013-04-14 14:37:00,
2013-04-14 07:43:00,41.0,38.0,29.86,SE,135,2.7,2.7,89,0.00,,,0.00,WUHU21623XXSP,2013-04-14 14:43:00,
2013-04-14 07:48:00,41.2,38.2,29.86,SE,135,0.0,2.7,89,0.00,,,0.00,WUHU21623XXSP,2013-04-14 14:48:00,
2013-04-14 07:53:00,41.5,38.5,29.86,SE,135,0.0,0.0,89,0.00,,,0.00,WUHU21623XXSP,2013-04-14 14:53:00,
2013-04-14 07:58:00,41.5,38.5,29.86,ESE,112,0.0,0.0,89,0.00,,,0.00,WUHU21623XXSP,2013-04-14 14:58:00,
2013-04-14 08:04:00,41.7,38.7,29.86,SE,135,0.0,0.0,89,0.00,,,0.00,WUHU21623XXSP,2013-04-14 15:04:00,
2013-04-14 08:09:00,41.7,38.7,29.86,SSE,157,2.2,2.2,89,0.00,,,0.00,WUHU21623XXSP,2013-04-14 15:09:00,
2013-04-14 08:14:00,41.9,38.9,29.86,SSE,157,0.0,2.2,89,0.00,,,0.00,WUHU21623XXSP,2013-04-14 15:14:00,
2013-04-14 08:20:00,42.1,39.1,29.86,ESE,112,0.0,0.0,89,0.00,,,0.00,WUHU21623XXSP,2013-04-14 15:20:00,
2013-04-14 08:25:00,42.1,39.1,29.86,SSE,157,5.8,5.8,89,0.00,,,0.00,WUHU21623XXSP,2013-04-14 15:25:00,
2013-04-14 08:30:00,42.4,39.4,29.86,SE,135,0.0,5.8,89,0.00,,,0.00,WUHU21623XXSP,2013-04-14 15:30:00,
2013-04-14 08:35:00,42.4,39.4,29.85,SSE,157,4.0,4.0,89,0.00,,,0.00,WUHU21623XXSP,2013-04-14 15:35:00,
2013-04-14 08:41:00,42.6,39.6,29.86,SSE,157,0.0,4.0,89,0.00,,,0.00,WUHU21623XXSP,2013-04-14 15:41:00,
2013-04-14 08:46:00,43.0,40.0,29.86,SSE,157,0.0,0.0,89,0.00,,,0.00,WUHU21623XXSP,2013-04-14 15:46:00,
2013-04-14 08:52:00,43.0,39.7,29.86,ESE,112,0.0,0.0,88,0.00,,,0.00,WUHU21623XXSP,2013-04-14 15:52:00,
2013-04-14 08:57:00,43.0,39.7,29.85,ESE,112,0.0,0.0,88,0.00,,,0.00,WUHU21623XXSP,2013-04-14 15:57:00,
2013-04-14 09:02:00,43.3,40.0,29.85,ESE,112,0.0,0.0,88,0.00,,,0.00,WUHU21623XXSP,2013-04-14 16:02:00,
2013-04-14 09:08:00,43.7,40.4,29.85,SE,135,0.0,0.0,88,0.00,,,0.00,WUHU21623XXSP,2013-04-14 16:08:00,
2013-04-14 09:13:00,44.2,40.9,29.86,SE,135,0.0,0.0,88,0.00,,,0.00,WUHU21623XXSP,2013-04-14 16:13:00,
2013-04-14 09:18:00,44.6,41.3,29.85,SE,135,0.0,0.0,88,0.00,,,0.00,WUHU21623XXSP,2013-04-14 16:18:00,
2013-04-14 09:23:00,44.8,41.5,29.85,SE,135,0.0,0.0,88,0.00,,,0.00,WUHU21623XXSP,2013-04-14 16:23:00,
2013-04-14 09:29:00,45.0,41.3,29.86,SE,135,0.0,0.0,87,0.00,,,0.00,WUHU21623XXSP,2013-04-14 16:29:00,
2013-04-14 09:34:00,45.0,41.3,29.85,SE,135,0.0,0.0,87,0.00,,,0.00,WUHU21623XXSP,2013-04-14 16:34:00,
2013-04-14 09:39:00,45.1,41.5,29.86,SE,135,0.0,0.0,87,0.00,,,0.00,WUHU21623XXSP,2013-04-14 16:39:00,
2013-04-14 09:44:00,44.8,40.9,29.85,SE,135,0.0,0.0,86,0.00,,,0.00,WUHU21623XXSP,2013-04-14 16:44:00,
2013-04-14 09:50:00,44.8,40.9,29.85,SE,135,0.0,0.0,86,0.00,,,0.00,WUHU21623XXSP,2013-04-14 16:50:00,
2013-04-14 09:55:00,44.4,40.5,29.86,ESE,112,0.0,0.0,86,0.00,,,0.00,WUHU21623XXSP,2013-04-14 16:55:00,
2013-04-14 10:00:00,44.4,40.5,29.86,ESE,112,0.0,0.0,86,0.00,,,0.00,WUHU21623XXSP,2013-04-14 17:00:00,
2013-04-14 10:06:00,44.2,40.3,29.85,ESE,112,0.0,0.0,86,0.00,,,0.00,WUHU21623XXSP,2013-04-14 17:06:00,
2013-04-14 10:11:00,44.1,40.1,29.85,ESE,112,0.0,0.0,86,0.00,,,0.00,WUHU21623XXSP,2013-04-14 17:11:00,
2013-04-14 10:16:00,44.1,40.1,29.85,ESE,112,0.0,0.0,86,0.00,,,0.00,WUHU21623XXSP,2013-04-14 17:16:00,
2013-04-14 10:22:00,44.4,40.5,29.85,ESE,112,0.0,0.0,86,0.00,,,0.00,WUHU21623XXSP,2013-04-14 17:22:00,
2013-04-14 10:27:00,44.6,41.0,29.85,ESE,112,0.0,0.0,87,0.00,,,0.00,WUHU21623XXSP,2013-04-14 17:27:00,
2013-04-14 10:32:00,45.0,41.3,29.85,ESE,112,0.0,0.0,87,0.00,,,0.00,WUHU21623XXSP,2013-04-14 17:32:00,
2013-04-14 10:37:00,45.3,41.7,29.85,ESE,112,0.0,0.0,87,0.00,,,0.00,WUHU21623XXSP,2013-04-14 17:37:00,
2013-04-14 10:43:00,46.0,41.8,29.85,East,90,0.0,0.0,85,0.00,,,0.00,WUHU21623XXSP,2013-04-14 17:43:00,
2013-04-14 10:48:00,46.0,41.8,29.85,East,90,0.0,0.0,85,0.00,,,0.00,WUHU21623XXSP,2013-04-14 17:48:00,
2013-04-14 10:53:00,46.0,41.8,29.85,East,90,0.0,0.0,85,0.00,,,0.00,WUHU21623XXSP,2013-04-14 17:53:00,
2013-04-14 10:59:00,46.0,41.5,29.85,East,90,0.0,0.0,84,0.00,,,0.00,WUHU21623XXSP,2013-04-14 17:59:00,
2013-04-14 11:04:00,45.7,41.1,29.85,East,90,0.0,0.0,84,0.00,,,0.00,WUHU21623XXSP,2013-04-14 18:04:00,
2013-04-14 11:09:00,45.9,41.3,29.85,East,90,0.0,0.0,84,0.00,,,0.00,WUHU21623XXSP,2013-04-14 18:09:00,
2013-04-14 11:14:00,45.7,41.1,29.85,East,90,0.0,0.0,84,0.00,,,0.00,WUHU21623XXSP,2013-04-14 18:14:00,
2013-04-14 11:20:00,45.7,41.1,29.85,East,90,0.0,0.0,84,0.00,,,0.00,WUHU21623XXSP,2013-04-14 18:20:00,
2013-04-14 11:25:00,46.0,41.5,29.85,SE,135,0.0,0.0,84,0.00,,,0.00,WUHU21623XXSP,2013-04-14 18:25:00,
2013-04-14 11:30:00,46.2,41.4,29.85,SE,135,0.0,0.0,83,0.00,,,0.00,WUHU21623XXSP,2013-04-14 18:30:00,
2013-04-14 11:36:00,46.6,41.7,29.85,ESE,112,0.0,0.0,83,0.00,,,0.00,WUHU21623XXSP,2013-04-14 18:36:00,
2013-04-14 11:41:00,46.8,41.6,29.84,SE,135,0.0,0.0,82,0.00,,,0.00,WUHU21623XXSP,2013-04-14 18:41:00,
2013-04-14 11:47:00,47.5,42.2,29.84,SE,135,0.0,0.0,82,0.00,,,0.00,WUHU21623XXSP,2013-04-14 18:47:00,
2013-04-14 11:52:00,48.6,43.3,29.84,ESE,112,0.0,3.4,82,0.00,,,0.00,WUHU21623XXSP,2013-04-14 18:52:00,
2013-04-14 11:57:00,49.1,42.8,29.84,ESE,112,0.0,3.4,79,0.00,,,0.00,WUHU21623XXSP,2013-04-14 18:57:00,
2013-04-14 12:03:00,49.6,42.7,29.84,ESE,112,0.0,0.7,77,0.00,,,0.00,WUHU21623XXSP,2013-04-14 19:03:00,
2013-04-14 12:08:00,50.0,43.0,29.83,ESE,112,0.0,0.0,77,0.00,,,0.00,WUHU21623XXSP,2013-04-14 19:08:00,
2013-04-14 12:13:00,50.2,42.2,29.83,ENE,67,0.0,0.0,74,0.00,,,0.00,WUHU21623XXSP,2013-04-14 19:13:00,
2013-04-14 12:19:00,50.5,42.5,29.83,SE,135,0.0,0.0,74,0.00,,,0.00,WUHU21623XXSP,2013-04-14 19:19:00,
2013-04-14 12:24:00,51.3,43.3,29.83,SE,135,0.0,0.0,74,0.00,,,0.00,WUHU21623XXSP,2013-04-14 19:24:00,
2013-04-14 12:29:00,52.0,42.6,29.83,SSE,157,0.0,0.0,70,0.00,,,0.00,WUHU21623XXSP,2013-04-14 19:29:00,
2013-04-14 12:34:00,52.2,43.1,29.83,SSE,157,0.0,0.0,71,0.00,,,0.00,WUHU21623XXSP,2013-04-14 19:34:00,
2013-04-14 12:40:00,52.5,43.4,29.83,SSE,157,0.0,0.0,71,0.00,,,0.00,WUHU21623XXSP,2013-04-14 19:40:00,
2013-04-14 12:45:00,53.2,43.7,29.83,SSE,157,0.0,0.0,70,0.00,,,0.00,WUHU21623XXSP,2013-04-14 19:45:00,
2013-04-14 12:50:00,53.8,43.4,29.82,ESE,112,1.6,1.6,68,0.00,,,0.00,WUHU21623XXSP,2013-04-14 19:50:00,
2013-04-14 12:56:00,54.1,43.0,29.81,SW,225,0.0,1.6,66,0.00,,,0.00,WUHU21623XXSP,2013-04-14 19:56:00,
2013-04-14 13:01:00,54.9,43.3,29.82,WSW,247,1.3,1.3,65,0.00,,,0.00,WUHU21623XXSP,2013-04-14 20:01:00,
2013-04-14 13:06:00,54.9,41.6,29.81,NNW,337,0.0,1.3,61,0.00,,,0.00,WUHU21623XXSP,2013-04-14 20:06:00,
2013-04-14 13:12:00,54.9,41.6,29.81,SE,135,0.0,0.0,61,0.00,,,0.00,WUHU21623XXSP,2013-04-14 20:12:00,
2013-04-14 13:17:00,55.0,40.9,29.81,NW,315,0.0,0.0,59,0.00,,,0.00,WUHU21623XXSP,2013-04-14 20:17:00,
2013-04-14 13:22:00,55.0,40.0,29.81,NNW,337,0.0,0.0,57,0.00,,,0.00,WUHU21623XXSP,2013-04-14 20:22:00,
2013-04-14 13:27:00,54.3,38.9,29.81,North,0,0.0,0.0,56,0.00,,,0.00,WUHU21623XXSP,2013-04-14 20:27:00,
2013-04-14 13:33:00,53.8,39.3,29.81,North,0,2.0,2.0,58,0.00,,,0.00,WUHU21623XXSP,2013-04-14 20:33:00,
2013-04-14 13:38:00,52.3,38.8,29.81,North,0,8.5,8.5,60,0.00,,,0.00,WUHU21623XXSP,2013-04-14 20:38:00,
2013-04-14 13:43:00,50.9,37.9,29.81,North,0,5.1,8.5,61,0.00,,,0.00,WUHU21623XXSP,2013-04-14 20:43:00,
2013-04-14 13:49:00,49.5,37.7,29.82,North,0,0.0,5.1,64,0.00,,,0.00,WUHU21623XXSP,2013-04-14 20:49:00,
2013-04-14 13:54:00,48.7,37.5,29.82,NW,315,0.0,1.3,65,0.00,,,0.00,WUHU21623XXSP,2013-04-14 20:54:00,
2013-04-14 13:59:00,48.0,37.5,29.81,North,0,0.0,1.3,67,0.00,,,0.00,WUHU21623XXSP,2013-04-14 20:59:00,
2013-04-14 14:05:00,48.0,38.7,29.81,North,0,0.0,0.0,70,0.00,,,0.00,WUHU21623XXSP,2013-04-14 21:05:00,
2013-04-14 14:10:00,48.0,39.0,29.81,North,0,0.0,0.0,71,0.00,,,0.00,WUHU21623XXSP,2013-04-14 21:10:00,
2013-04-14 14:15:00,48.0,38.3,29.81,North,0,0.0,0.0,69,0.00,,,0.00,WUHU21623XXSP,2013-04-14 21:15:00,
2013-04-14 14:20:00,48.0,38.7,29.80,North,0,0.0,0.0,70,0.00,,,0.00,WUHU21623XXSP,2013-04-14 21:20:00,
2013-04-14 14:26:00,48.7,38.2,29.81,North,0,0.0,0.0,67,0.00,,,0.00,WUHU21623XXSP,2013-04-14 21:26:00,
2013-04-14 14:31:00,49.3,38.8,29.80,NNE,22,0.0,0.7,67,0.00,,,0.00,WUHU21623XXSP,2013-04-14 21:31:00,
2013-04-14 14:36:00,49.8,38.5,29.80,NW,315,0.0,0.7,65,0.00,,,0.00,WUHU21623XXSP,2013-04-14 21:36:00,
2013-04-14 14:42:00,50.0,37.1,29.80,NNW,337,0.0,0.0,61,0.00,,,0.00,WUHU21623XXSP,2013-04-14 21:42:00,
2013-04-14 14:47:00,49.6,36.4,29.80,NNW,337,6.3,6.3,60,0.00,,,0.00,WUHU21623XXSP,2013-04-14 21:47:00,
2013-04-14 14:52:00,49.5,36.6,29.80,North,0,0.0,6.3,61,0.00,,,0.00,WUHU21623XXSP,2013-04-14 21:52:00,
2013-04-14 14:58:00,49.5,36.6,29.79,NNE,22,0.0,0.0,61,0.00,,,0.00,WUHU21623XXSP,2013-04-14 21:58:00,
2013-04-14 15:03:00,49.8,37.7,29.79,NNW,337,0.0,0.0,63,0.00,,,0.00,WUHU21623XXSP,2013-04-14 22:03:00,
2013-04-14 15:08:00,50.0,36.7,29.80,NNW,337,0.0,0.0,60,0.00,,,0.00,WUHU21623XXSP,2013-04-14 22:08:00,
2013-04-14 15:14:00,50.0,37.1,29.80,West,270,0.0,0.0,61,0.00,,,0.00,WUHU21623XXSP,2013-04-14 22:14:00,
2013-04-14 15:19:00,50.2,37.2,29.79,NW,315,0.0,0.0,61,0.00,,,0.00,WUHU21623XXSP,2013-04-14 22:19:00,
2013-04-14 15:24:00,50.4,36.6,29.79,North,0,0.9,0.9,59,0.00,,,0.00,WUHU21623XXSP,2013-04-14 22:24:00,
2013-04-14 15:29:00,50.2,36.8,29.79,North,0,0.0,0.9,60,0.00,,,0.00,WUHU21623XXSP,2013-04-14 22:29:00,
2013-04-14 15:35:00,50.2,36.4,29.79,NNW,337,3.4,3.4,59,0.00,,,0.00,WUHU21623XXSP,2013-04-14 22:35:00,
2013-04-14 15:40:00,50.4,36.6,29.79,NE,45,0.0,3.4,59,0.00,,,0.00,WUHU21623XXSP,2013-04-14 22:40:00,
2013-04-14 15:45:00,50.4,36.1,29.78,North,0,0.0,0.0,58,0.00,,,0.00,WUHU21623XXSP,2013-04-14 22:45:00,
2013-04-14 15:51:00,50.7,36.9,29.78,NW,315,3.8,3.8,59,0.00,,,0.00,WUHU21623XXSP,2013-04-14 22:51:00,
2013-04-14 15:56:00,50.7,35.5,29.78,North,0,0.0,3.8,56,0.00,,,0.00,WUHU21623XXSP,2013-04-14 22:56:00,
2013-04-14 16:02:00,50.7,35.5,29.78,NW,315,0.0,0.0,56,0.00,,,0.00,WUHU21623XXSP,2013-04-14 23:02:00,
2013-04-14 16:07:00,50.7,35.5,29.77,WNW,292,0.0,0.0,56,0.00,,,0.00,WUHU21623XXSP,2013-04-14 23:07:00,
2013-04-14 16:12:00,50.9,35.2,29.77,WNW,292,0.0,0.0,55,0.00,,,0.00,WUHU21623XXSP,2013-04-14 23:12:00,
2013-04-14 16:18:00,50.9,35.2,29.77,NNE,22,0.0,0.0,55,0.00,,,0.00,WUHU21623XXSP,2013-04-14 23:18:00,
2013-04-14 16:23:00,51.1,35.4,29.77,North,0,0.0,0.0,55,0.00,,,0.00,WUHU21623XXSP,2013-04-14 23:23:00,
2013-04-14 16:28:00,51.4,35.7,29.77,NW,315,0.0,0.0,55,0.00,,,0.00,WUHU21623XXSP,2013-04-14 23:28:00,
2013-04-14 16:33:00,51.4,35.7,29.77,NNE,22,0.0,0.0,55,0.00,,,0.00,WUHU21623XXSP,2013-04-14 23:33:00,
2013-04-14 16:39:00,51.6,35.9,29.76,NNE,22,0.0,0.0,55,0.00,,,0.00,WUHU21623XXSP,2013-04-14 23:39:00,
2013-04-14 16:44:00,51.4,35.7,29.77,NNE,22,0.0,0.0,55,0.00,,,0.00,WUHU21623XXSP,2013-04-14 23:44:00,
2013-04-14 16:49:00,51.4,35.7,29.77,NNW,337,0.0,0.0,55,0.00,,,0.00,WUHU21623XXSP,2013-04-14 23:49:00,
2013-04-14 16:54:00,51.3,35.1,29.77,NNW,337,1.8,1.8,54,0.00,,,0.00,WUHU21623XXSP,2013-04-14 23:54:00,
2013-04-14 17:00:00,51.3,35.6,29.76,WNW,292,0.0,1.8,55,0.00,,,0.00,WUHU21623XXSP,2013-04-15 00:00:00,
2013-04-14 17:05:00,51.4,35.7,29.76,NNW,337,0.0,0.0,55,0.00,,,0.00,WUHU21623XXSP,2013-04-15 00:05:00,
2013-04-14 17:10:00,51.6,35.9,29.77,NNE,22,0.0,1.3,55,0.00,,,0.00,WUHU21623XXSP,2013-04-15 00:10:00,
2013-04-14 17:16:00,51.4,35.7,29.77,NNE,22,0.0,1.3,55,0.00,,,0.00,WUHU21623XXSP,2013-04-15 00:16:00,
2013-04-14 17:21:00,51.6,36.8,29.76,NW,315,0.0,0.0,57,0.00,,,0.00,WUHU21623XXSP,2013-04-15 00:21:00,
2013-04-14 17:26:00,52.0,37.1,29.77,West,270,0.0,0.0,57,0.00,,,0.00,WUHU21623XXSP,2013-04-15 00:26:00,
2013-04-14 17:32:00,52.0,36.7,29.76,NNW,337,0.0,4.0,56,0.00,,,0.00,WUHU21623XXSP,2013-04-15 00:32:00,
2013-04-14 17:37:00,52.0,36.7,29.76,West,270,0.0,4.0,56,0.00,,,0.00,WUHU21623XXSP,2013-04-15 00:37:00,
2013-04-14 17:42:00,52.0,37.1,29.76,NW,315,0.0,0.0,57,0.00,,,0.00,WUHU21623XXSP,2013-04-15 00:42:00,
2013-04-14 17:48:00,51.8,36.5,29.76,NNE,22,4.0,4.0,56,0.00,,,0.00,WUHU21623XXSP,2013-04-15 00:48:00,
2013-04-14 17:53:00,51.4,36.2,29.76,NNE,22,0.0,4.0,56,0.00,,,0.00,WUHU21623XXSP,2013-04-15 00:53:00,
2013-04-14 17:58:00,51.4,36.2,29.77,North,0,0.0,0.0,56,0.00,,,0.00,WUHU21623XXSP,2013-04-15 00:58:00,
2013-04-14 18:03:00,51.1,35.9,29.76,North,0,0.0,6.5,56,0.00,,,0.00,WUHU21623XXSP,2013-04-15 01:03:00,
2013-04-14 18:09:00,50.9,35.2,29.76,North,0,0.0,6.5,55,0.00,,,0.00,WUHU21623XXSP,2013-04-15 01:09:00,
2013-04-14 18:14:00,50.7,35.1,29.76,NNE,22,4.7,5.8,55,0.00,,,0.00,WUHU21623XXSP,2013-04-15 01:14:00,
2013-04-14 18:19:00,50.5,35.4,29.76,WNW,292,0.0,4.7,56,0.00,,,0.00,WUHU21623XXSP,2013-04-15 01:19:00,
2013-04-14 18:25:00,50.5,35.4,29.77,North,0,0.0,0.0,56,0.00,,,0.00,WUHU21623XXSP,2013-04-15 01:25:00,
2013-04-14 18:30:00,50.4,35.2,29.77,North,0,0.0,0.0,56,0.00,,,0.00,WUHU21623XXSP,2013-04-15 01:30:00,
2013-04-14 18:35:00,50.5,35.8,29.77,North,0,0.0,0.0,57,0.00,,,0.00,WUHU21623XXSP,2013-04-15 01:35:00,
2013-04-14 18:40:00,50.5,35.8,29.77,North,0,0.0,0.0,57,0.00,,,0.00,WUHU21623XXSP,2013-04-15 01:40:00,
2013-04-14 18:46:00,50.4,35.7,29.76,NNW,337,0.0,0.0,57,0.00,,,0.00,WUHU21623XXSP,2013-04-15 01:46:00,
2013-04-14 18:51:00,50.4,36.1,29.76,NNW,337,0.0,0.0,58,0.00,,,0.00,WUHU21623XXSP,2013-04-15 01:51:00,
2013-04-14 18:56:00,50.2,35.9,29.76,North,0,0.0,0.0,58,0.00,,,0.00,WUHU21623XXSP,2013-04-15 01:56:00,
2013-04-14 19:02:00,50.2,35.9,29.76,North,0,0.0,0.0,58,0.00,,,0.00,WUHU21623XXSP,2013-04-15 02:02:00,
2013-04-14 19:07:00,50.2,36.4,29.76,North,0,0.0,0.0,59,0.00,,,0.00,WUHU21623XXSP,2013-04-15 02:07:00,
2013-04-14 19:12:00,49.8,36.5,29.77,North,0,0.0,0.0,60,0.00,,,0.00,WUHU21623XXSP,2013-04-15 02:12:00,
2013-04-14 19:18:00,49.8,36.5,29.77,North,0,0.0,0.0,60,0.00,,,0.00,WUHU21623XXSP,2013-04-15 02:18:00,
2013-04-14 19:23:00,49.8,36.9,29.77,North,0,0.0,0.0,61,0.00,,,0.00,WUHU21623XXSP,2013-04-15 02:23:00,
2013-04-14 19:28:00,49.8,36.9,29.77,North,0,0.0,0.0,61,0.00,,,0.00,WUHU21623XXSP,2013-04-15 02:28:00,
2013-04-14 19:33:00,49.6,36.4,29.77,North,0,0.0,0.0,60,0.00,,,0.00,WUHU21623XXSP,2013-04-15 02:33:00,
2013-04-14 19:39:00,49.3,36.0,29.77,North,0,0.0,0.0,60,0.00,,,0.00,WUHU21623XXSP,2013-04-15 02:39:00,
2013-04-14 19:44:00,49.3,36.4,29.77,SSE,157,0.0,0.0,61,0.00,,,0.00,WUHU21623XXSP,2013-04-15 02:44:00,
2013-04-14 19:49:00,49.3,37.2,29.77,SSE,157,2.5,2.5,63,0.00,,,0.00,WUHU21623XXSP,2013-04-15 02:49:00,
2013-04-14 19:54:00,49.1,37.0,29.78,SSE,157,7.2,7.2,63,0.00,,,0.00,WUHU21623XXSP,2013-04-15 02:54:00,
2013-04-14 20:00:00,48.9,37.2,29.78,SSE,157,0.0,7.2,64,0.00,,,0.00,WUHU21623XXSP,2013-04-15 03:00:00,
2013-04-14 20:05:00,48.9,37.2,29.78,SSE,157,0.0,0.0,64,0.00,,,0.00,WUHU21623XXSP,2013-04-15 03:05:00,
2013-04-14 20:10:00,48.7,37.5,29.78,SSW,202,0.0,0.0,65,0.00,,,0.00,WUHU21623XXSP,2013-04-15 03:10:00,
2013-04-14 20:16:00,48.6,37.3,29.78,South,180,0.0,0.0,65,0.00,,,0.00,WUHU21623XXSP,2013-04-15 03:16:00,
2013-04-14 20:21:00,48.0,37.1,29.78,South,180,0.0,0.0,66,0.00,,,0.00,WUHU21623XXSP,2013-04-15 03:21:00,
2013-04-14 20:26:00,48.0,37.1,29.78,SSE,157,0.0,0.0,66,0.00,,,0.00,WUHU21623XXSP,2013-04-15 03:26:00,
2013-04-14 20:31:00,47.8,37.0,29.78,SE,135,0.0,0.0,66,0.00,,,0.00,WUHU21623XXSP,2013-04-15 03:31:00,
2013-04-14 20:37:00,47.7,37.2,29.78,SE,135,0.0,0.0,67,0.00,,,0.00,WUHU21623XXSP,2013-04-15 03:37:00,
2013-04-14 20:42:00,47.5,37.0,29.78,SE,135,0.0,0.0,67,0.00,,,0.00,WUHU21623XXSP,2013-04-15 03:42:00,
2013-04-14 20:47:00,47.3,37.3,29.79,SE,135,0.0,0.0,68,0.00,,,0.00,WUHU21623XXSP,2013-04-15 03:47:00,
2013-04-14 20:53:00,47.1,37.1,29.78,SE,135,0.0,0.0,68,0.00,,,0.00,WUHU21623XXSP,2013-04-15 03:53:00,
2013-04-14 20:59:00,46.9,37.3,29.79,SE,135,0.0,0.0,69,0.00,,,0.00,WUHU21623XXSP,2013-04-15 03:59:00,
2013-04-14 21:04:00,46.9,37.3,29.79,SE,135,0.0,0.0,69,0.00,,,0.00,WUHU21623XXSP,2013-04-15 04:04:00,
2013-04-14 21:09:00,46.8,37.1,29.79,SE,135,0.0,0.0,69,0.00,,,0.00,WUHU21623XXSP,2013-04-15 04:09:00,
2013-04-14 21:15:00,46.6,37.4,29.80,SE,135,0.0,0.0,70,0.00,,,0.00,WUHU21623XXSP,2013-04-15 04:15:00,
2013-04-14 21:20:00,46.6,37.4,29.79,SE,135,0.0,0.0,70,0.00,,,0.00,WUHU21623XXSP,2013-04-15 04:20:00,
2013-04-14 21:25:00,46.2,37.4,29.80,SE,135,0.0,0.0,71,0.00,,,0.00,WUHU21623XXSP,2013-04-15 04:25:00,
2013-04-14 21:31:00,46.2,37.4,29.79,SE,135,0.0,0.0,71,0.00,,,0.00,WUHU21623XXSP,2013-04-15 04:31:00,
2013-04-14 21:36:00,46.0,37.2,29.80,SE,135,0.0,0.0,71,0.00,,,0.00,WUHU21623XXSP,2013-04-15 04:36:00,
2013-04-14 21:42:00,46.0,37.5,29.80,SE,135,0.0,0.0,72,0.00,,,0.00,WUHU21623XXSP,2013-04-15 04:42:00,
2013-04-14 21:47:00,45.9,37.4,29.80,SE,135,0.0,0.0,72,0.00,,,0.00,WUHU21623XXSP,2013-04-15 04:47:00,
2013-04-14 21:52:00,45.7,37.2,29.80,SE,135,0.0,0.0,72,0.00,,,0.00,WUHU21623XXSP,2013-04-15 04:52:00,
2013-04-14 21:57:00,45.7,37.5,29.80,SE,135,0.0,0.0,73,0.00,,,0.00,WUHU21623XXSP,2013-04-15 04:57:00,
2013-04-14 22:03:00,45.7,37.5,29.80,SE,135,0.0,0.0,73,0.00,,,0.00,WUHU21623XXSP,2013-04-15 05:03:00,
2013-04-14 22:08:00,45.7,37.5,29.80,SE,135,0.7,0.7,73,0.00,,,0.00,WUHU21623XXSP,2013-04-15 05:08:00,
2013-04-14 22:13:00,45.5,37.7,29.80,SSE,157,0.0,0.7,74,0.00,,,0.00,WUHU21623XXSP,2013-04-15 05:13:00,
2013-04-14 22:19:00,45.5,37.7,29.80,SSE,157,0.0,0.0,74,0.00,,,0.00,WUHU21623XXSP,2013-04-15 05:19:00,
2013-04-14 22:24:00,45.3,37.9,29.80,SSE,157,0.0,0.0,75,0.00,,,0.00,WUHU21623XXSP,2013-04-15 05:24:00,
2013-04-14 22:29:00,45.1,37.7,29.80,SSE,157,0.0,0.0,75,0.00,,,0.00,WUHU21623XXSP,2013-04-15 05:29:00,
2013-04-14 22:34:00,45.1,37.7,29.80,SSE,157,0.0,0.0,75,0.00,,,0.00,WUHU21623XXSP,2013-04-15 05:34:00,
2013-04-14 22:40:00,45.0,37.5,29.80,SSE,157,0.0,0.0,75,0.00,,,0.00,WUHU21623XXSP,2013-04-15 05:40:00,
2013-04-14 22:45:00,44.8,37.7,29.80,SSE,157,0.0,0.0,76,0.00,,,0.00,WUHU21623XXSP,2013-04-15 05:45:00,
2013-04-14 22:50:00,44.6,37.5,29.80,SSE,157,0.0,0.0,76,0.00,,,0.00,WUHU21623XXSP,2013-04-15 05:50:00,
2013-04-14 22:56:00,44.4,37.3,29.80,SSE,157,0.0,0.0,76,0.00,,,0.00,WUHU21623XXSP,2013-04-15 05:56:00,
2013-04-14 23:01:00,44.2,37.5,29.80,SSE,157,0.0,0.0,77,0.00,,,0.00,WUHU21623XXSP,2013-04-15 06:01:00,
2013-04-14 23:07:00,44.1,37.3,29.80,SSE,157,0.0,0.0,77,0.00,,,0.00,WUHU21623XXSP,2013-04-15 06:07:00,
2013-04-14 23:12:00,43.9,37.1,29.80,SE,135,0.0,0.0,77,0.00,,,0.00,WUHU21623XXSP,2013-04-15 06:12:00,
2013-04-14 23:17:00,43.7,37.3,29.80,SE,135,0.0,0.0,78,0.00,,,0.00,WUHU21623XXSP,2013-04-15 06:17:00,
2013-04-14 23:22:00,43.5,37.1,29.80,SE,135,0.0,0.0,78,0.00,,,0.00,WUHU21623XXSP,2013-04-15 06:22:00,
2013-04-14 23:28:00,43.5,37.1,29.80,SE,135,0.0,0.0,78,0.00,,,0.00,WUHU21623XXSP,2013-04-15 06:28:00,
2013-04-14 23:33:00,43.3,36.9,29.80,SE,135,0.0,0.0,78,0.00,,,0.00,WUHU21623XXSP,2013-04-15 06:33:00,
2013-04-14 23:38:00,43.3,36.9,29.80,SE,135,0.0,0.0,78,0.00,,,0.00,WUHU21623XXSP,2013-04-15 06:38:00,
2013-04-14 23:43:00,43.2,37.1,29.80,SE,135,0.0,0.0,79,0.00,,,0.00,WUHU21623XXSP,2013-04-15 06:43:00,
2013-04-14 23:49:00,43.0,36.9,29.80,SE,135,0.0,0.0,79,0.00,,,0.00,WUHU21623XXSP,2013-04-15 06:49:00,
2013-04-14 23:54:00,43.0,36.9,29.80,SE,135,0.0,0.0,79,0.00,,,0.00,WUHU21623XXSP,2013-04-15 06:54:00,
2013-04-14 23:59:00,42.8,37.0,29.79,SE,135,0.0,0.0,80,0.00,,,0.00,WUHU21623XXSP,2013-04-15 06:59:00,